Year,Month,Day,Hour,Minute,Value (Times are PST for temperature in C)
2023,05,14,00,00,15.50
2023,05,14,00,01,15.40
2023,05,14,00,02,15.40
2023,05,14,00,03,15.40
2023,05,14,00,04,15.40
2023,05,14,00,05,15.40
2023,05,14,00,06,15.40
2023,05,14,00,07,15.30
2023,05,14,00,08,15.30
2023,05,14,00,09,15.30
2023,05,14,00,10,15.30
2023,05,14,00,11,15.30
2023,05,14,00,12,15.20
2023,05,14,00,13,15.20
2023,05,14,00,14,15.20
2023,05,14,00,15,15.20
2023,05,14,00,16,15.20
2023,05,14,00,17,15.20
2023,05,14,00,18,15.20
2023,05,14,00,19,15.10
2023,05,14,00,20,15.10
2023,05,14,00,21,15.10
2023,05,14,00,22,15.10
2023,05,14,00,23,15.10
2023,05,14,00,24,15.10
2023,05,14,00,25,15.10
2023,05,14,00,26,15.10
2023,05,14,00,27,15.10
2023,05,14,00,28,15.10
2023,05,14,00,29,15.00
2023,05,14,00,30,15.00
2023,05,14,00,31,15.00
2023,05,14,00,32,15.00
2023,05,14,00,33,15.00
2023,05,14,00,34,15.00
2023,05,14,00,35,15.00
2023,05,14,00,36,15.00
2023,05,14,00,37,14.90
2023,05,14,00,38,14.90
2023,05,14,00,39,14.90
2023,05,14,00,40,14.90
2023,05,14,00,41,14.90
2023,05,14,00,42,14.90
2023,05,14,00,43,14.90
2023,05,14,00,44,14.90
2023,05,14,00,45,14.90
2023,05,14,00,46,14.80
2023,05,14,00,47,14.80
2023,05,14,00,48,14.80
2023,05,14,00,49,14.80
2023,05,14,00,50,14.80
2023,05,14,00,51,14.80
2023,05,14,00,52,14.80
2023,05,14,00,53,14.80
2023,05,14,00,54,14.70
2023,05,14,00,55,14.70
2023,05,14,00,56,14.70
2023,05,14,00,57,14.70
2023,05,14,00,58,14.70
2023,05,14,00,59,14.70
2023,05,14,01,00,14.70
2023,05,14,01,01,14.70
2023,05,14,01,02,14.70
2023,05,14,01,03,14.70
2023,05,14,01,04,14.70
2023,05,14,01,05,14.70
2023,05,14,01,06,14.70
2023,05,14,01,07,14.60
2023,05,14,01,08,14.60
2023,05,14,01,09,14.70
2023,05,14,01,10,14.70
2023,05,14,01,11,14.70
2023,05,14,01,12,14.70
2023,05,14,01,13,14.70
2023,05,14,01,14,14.70
2023,05,14,01,15,14.60
2023,05,14,01,16,14.60
2023,05,14,01,17,14.60
2023,05,14,01,18,14.60
2023,05,14,01,19,14.60
2023,05,14,01,20,14.60
2023,05,14,01,21,14.60
2023,05,14,01,22,14.60
2023,05,14,01,23,14.60
2023,05,14,01,24,14.60
2023,05,14,01,25,14.60
2023,05,14,01,26,14.60
2023,05,14,01,27,14.60
2023,05,14,01,28,14.60
2023,05,14,01,29,14.60
2023,05,14,01,30,14.50
2023,05,14,01,31,14.50
2023,05,14,01,32,14.50
2023,05,14,01,33,14.50
2023,05,14,01,34,14.40
2023,05,14,01,35,14.40
2023,05,14,01,36,14.40
2023,05,14,01,37,14.40
2023,05,14,01,38,14.40
2023,05,14,01,39,14.30
2023,05,14,01,40,14.30
2023,05,14,01,41,14.30
2023,05,14,01,42,14.20
2023,05,14,01,43,14.20
2023,05,14,01,44,14.20
2023,05,14,01,45,14.20
2023,05,14,01,46,14.20
2023,05,14,01,47,14.20
2023,05,14,01,48,14.20
2023,05,14,01,49,14.20
2023,05,14,01,50,14.20
2023,05,14,01,51,14.20
2023,05,14,01,52,14.20
2023,05,14,01,53,14.20
2023,05,14,01,54,14.20
2023,05,14,01,55,14.20
2023,05,14,01,56,14.20
2023,05,14,01,57,14.20
2023,05,14,01,58,14.20
2023,05,14,01,59,14.20
2023,05,14,02,00,14.20
2023,05,14,02,01,14.20
2023,05,14,02,02,14.20
2023,05,14,02,03,14.20
2023,05,14,02,04,14.20
2023,05,14,02,05,14.30
2023,05,14,02,06,14.30
2023,05,14,02,07,14.30
2023,05,14,02,08,14.30
2023,05,14,02,09,14.30
2023,05,14,02,10,14.30
2023,05,14,02,11,14.30
2023,05,14,02,12,14.30
2023,05,14,02,13,14.40
2023,05,14,02,14,14.40
2023,05,14,02,15,14.30
2023,05,14,02,16,14.30
2023,05,14,02,17,14.30
2023,05,14,02,18,14.30
2023,05,14,02,19,14.30
2023,05,14,02,20,14.30
2023,05,14,02,21,14.30
2023,05,14,02,22,14.20
2023,05,14,02,23,14.20
2023,05,14,02,24,14.20
2023,05,14,02,25,14.20
2023,05,14,02,26,14.20
2023,05,14,02,27,14.10
2023,05,14,02,28,14.10
2023,05,14,02,29,14.10
2023,05,14,02,30,14.10
2023,05,14,02,31,14.20
2023,05,14,02,32,14.20
2023,05,14,02,33,14.20
2023,05,14,02,34,14.20
2023,05,14,02,35,14.20
2023,05,14,02,36,14.20
2023,05,14,02,37,14.20
2023,05,14,02,38,14.20
2023,05,14,02,39,14.20
2023,05,14,02,40,14.10
2023,05,14,02,41,14.10
2023,05,14,02,42,14.10
2023,05,14,02,43,14.10
2023,05,14,02,44,14.10
2023,05,14,02,45,14.10
2023,05,14,02,46,14.10
2023,05,14,02,47,14.10
2023,05,14,02,48,14.10
2023,05,14,02,49,14.10
2023,05,14,02,50,14.10
2023,05,14,02,51,14.10
2023,05,14,02,52,14.10
2023,05,14,02,53,14.10
2023,05,14,02,54,14.10
2023,05,14,02,55,14.00
2023,05,14,02,56,14.00
2023,05,14,02,57,14.00
2023,05,14,02,58,14.00
2023,05,14,02,59,14.00
2023,05,14,03,00,14.00
2023,05,14,03,01,14.00
2023,05,14,03,02,14.00
2023,05,14,03,03,14.00
2023,05,14,03,04,14.00
2023,05,14,03,05,14.00
2023,05,14,03,06,14.00
2023,05,14,03,07,14.00
2023,05,14,03,08,14.00
2023,05,14,03,09,14.00
2023,05,14,03,10,14.00
2023,05,14,03,11,14.00
2023,05,14,03,12,14.00
2023,05,14,03,13,14.00
2023,05,14,03,14,14.00
2023,05,14,03,15,14.00
2023,05,14,03,16,14.00
2023,05,14,03,17,14.00
2023,05,14,03,18,14.00
2023,05,14,03,19,14.00
2023,05,14,03,20,14.00
2023,05,14,03,21,14.00
2023,05,14,03,22,14.10
2023,05,14,03,23,14.10
2023,05,14,03,24,14.10
2023,05,14,03,25,14.10
2023,05,14,03,26,14.20
2023,05,14,03,27,14.20
2023,05,14,03,28,14.20
2023,05,14,03,29,14.20
2023,05,14,03,30,14.20
2023,05,14,03,31,14.20
2023,05,14,03,32,14.20
2023,05,14,03,33,14.20
2023,05,14,03,34,14.20
2023,05,14,03,35,14.20
2023,05,14,03,36,14.20
2023,05,14,03,37,14.20
2023,05,14,03,38,14.20
2023,05,14,03,39,14.20
2023,05,14,03,40,14.20
2023,05,14,03,41,14.20
2023,05,14,03,42,14.20
2023,05,14,03,43,14.20
2023,05,14,03,44,14.20
2023,05,14,03,45,14.30
2023,05,14,03,46,14.30
2023,05,14,03,47,14.30
2023,05,14,03,48,14.30
2023,05,14,03,49,14.30
2023,05,14,03,50,14.30
2023,05,14,03,51,14.30
2023,05,14,03,52,14.40
2023,05,14,03,53,14.40
2023,05,14,03,54,14.40
2023,05,14,03,55,14.40
2023,05,14,03,56,14.30
2023,05,14,03,57,14.30
2023,05,14,03,58,14.30
2023,05,14,03,59,14.30
2023,05,14,04,00,14.30
2023,05,14,04,01,14.30
2023,05,14,04,02,14.40
2023,05,14,04,03,14.40
2023,05,14,04,04,14.50
2023,05,14,04,05,14.60
2023,05,14,04,06,14.60
2023,05,14,04,07,14.70
2023,05,14,04,08,14.70
2023,05,14,04,09,14.80
2023,05,14,04,10,14.80
2023,05,14,04,11,14.80
2023,05,14,04,12,14.90
2023,05,14,04,13,14.90
2023,05,14,04,14,15.00
2023,05,14,04,15,15.00
2023,05,14,04,16,15.10
2023,05,14,04,17,15.10
2023,05,14,04,18,15.10
2023,05,14,04,19,15.10
2023,05,14,04,20,15.20
2023,05,14,04,21,15.20
2023,05,14,04,22,15.20
2023,05,14,04,23,15.30
2023,05,14,04,24,15.30
2023,05,14,04,25,15.40
2023,05,14,04,26,15.50
2023,05,14,04,27,15.60
2023,05,14,04,28,15.70
2023,05,14,04,29,15.70
2023,05,14,04,30,15.80
2023,05,14,04,31,15.80
2023,05,14,04,32,15.90
2023,05,14,04,33,16.00
2023,05,14,04,34,16.10
2023,05,14,04,35,16.10
2023,05,14,04,36,16.30
2023,05,14,04,37,16.40
2023,05,14,04,38,16.50
2023,05,14,04,39,16.70
2023,05,14,04,40,16.80
2023,05,14,04,41,16.90
2023,05,14,04,42,17.00
2023,05,14,04,43,17.20
2023,05,14,04,44,17.30
2023,05,14,04,45,17.40
2023,05,14,04,46,17.60
2023,05,14,04,47,17.80
2023,05,14,04,48,18.00
2023,05,14,04,49,18.20
2023,05,14,04,50,18.30
2023,05,14,04,51,18.40
2023,05,14,04,52,18.40
2023,05,14,04,53,18.50
2023,05,14,04,54,18.50
2023,05,14,04,55,18.50
2023,05,14,04,56,18.60
2023,05,14,04,57,18.60
2023,05,14,04,58,18.60
2023,05,14,04,59,18.60
2023,05,14,05,00,18.60
2023,05,14,05,01,18.70
2023,05,14,05,02,18.70
2023,05,14,05,03,18.70
2023,05,14,05,04,18.70
2023,05,14,05,05,18.70
2023,05,14,05,06,18.70
2023,05,14,05,07,18.80
2023,05,14,05,08,18.80
2023,05,14,05,09,18.80
2023,05,14,05,10,18.90
2023,05,14,05,11,18.90
2023,05,14,05,12,19.00
2023,05,14,05,13,19.10
2023,05,14,05,14,19.10
2023,05,14,05,15,19.20
2023,05,14,05,16,19.20
2023,05,14,05,17,19.30
2023,05,14,05,18,19.30
2023,05,14,05,19,19.30
2023,05,14,05,20,19.30
2023,05,14,05,21,19.40
2023,05,14,05,22,19.40
2023,05,14,05,23,19.40
2023,05,14,05,24,19.40
2023,05,14,05,25,19.40
2023,05,14,05,26,19.40
2023,05,14,05,27,19.40
2023,05,14,05,28,19.30
2023,05,14,05,29,19.30
2023,05,14,05,30,19.30
2023,05,14,05,31,19.30
2023,05,14,05,32,19.30
2023,05,14,05,33,19.30
2023,05,14,05,34,19.30
2023,05,14,05,35,19.20
2023,05,14,05,36,19.20
2023,05,14,05,37,19.20
2023,05,14,05,38,19.20
2023,05,14,05,39,19.20
2023,05,14,05,40,19.10
2023,05,14,05,41,19.10
2023,05,14,05,42,19.10
2023,05,14,05,43,19.10
2023,05,14,05,44,19.20
2023,05,14,05,45,19.10
2023,05,14,05,46,19.10
2023,05,14,05,47,19.10
2023,05,14,05,48,19.10
2023,05,14,05,49,19.00
2023,05,14,05,50,19.00
2023,05,14,05,51,18.90
2023,05,14,05,52,18.80
2023,05,14,05,53,18.80
2023,05,14,05,54,18.70
2023,05,14,05,55,18.70
2023,05,14,05,56,18.70
2023,05,14,05,57,18.60
2023,05,14,05,58,18.60
2023,05,14,05,59,18.50
2023,05,14,06,00,18.50
2023,05,14,06,01,18.50
2023,05,14,06,02,18.40
2023,05,14,06,03,18.40
2023,05,14,06,04,18.30
2023,05,14,06,05,18.30
2023,05,14,06,06,18.30
2023,05,14,06,07,18.20
2023,05,14,06,08,18.20
2023,05,14,06,09,18.20
2023,05,14,06,10,18.20
2023,05,14,06,11,18.20
2023,05,14,06,12,18.20
2023,05,14,06,13,18.20
2023,05,14,06,14,18.20
2023,05,14,06,15,18.20
2023,05,14,06,16,18.20
2023,05,14,06,17,18.20
2023,05,14,06,18,18.20
2023,05,14,06,19,18.20
2023,05,14,06,20,18.20
2023,05,14,06,21,18.20
2023,05,14,06,22,18.10
2023,05,14,06,23,18.10
2023,05,14,06,24,18.10
2023,05,14,06,25,18.10
2023,05,14,06,26,18.10
2023,05,14,06,27,18.10
2023,05,14,06,28,18.10
2023,05,14,06,29,18.10
2023,05,14,06,30,18.10
2023,05,14,06,31,18.10
2023,05,14,06,32,18.10
2023,05,14,06,33,18.10
2023,05,14,06,34,18.10
2023,05,14,06,35,18.10
2023,05,14,06,36,18.00
2023,05,14,06,37,18.00
2023,05,14,06,38,18.00
2023,05,14,06,39,18.00
2023,05,14,06,40,18.00
2023,05,14,06,41,18.00
2023,05,14,06,42,17.90
2023,05,14,06,43,17.90
2023,05,14,06,44,17.90
2023,05,14,06,45,17.80
2023,05,14,06,46,17.80
2023,05,14,06,47,17.80
2023,05,14,06,48,17.70
2023,05,14,06,49,17.70
2023,05,14,06,50,17.70
2023,05,14,06,51,17.60
2023,05,14,06,52,17.60
2023,05,14,06,53,17.60
2023,05,14,06,54,17.60
2023,05,14,06,55,17.50
2023,05,14,06,56,17.50
2023,05,14,06,57,17.50
2023,05,14,06,58,17.50
2023,05,14,06,59,17.60
2023,05,14,07,00,17.60
2023,05,14,07,01,17.60
2023,05,14,07,02,17.70
2023,05,14,07,03,17.70
2023,05,14,07,04,17.70
2023,05,14,07,05,17.70
2023,05,14,07,06,17.80
2023,05,14,07,07,17.80
2023,05,14,07,08,17.80
2023,05,14,07,09,17.80
2023,05,14,07,10,17.80
2023,05,14,07,11,17.80
2023,05,14,07,12,17.80
2023,05,14,07,13,17.90
2023,05,14,07,14,17.90
2023,05,14,07,15,17.90
2023,05,14,07,16,17.90
2023,05,14,07,17,17.90
2023,05,14,07,18,18.00
2023,05,14,07,19,18.00
2023,05,14,07,20,18.00
2023,05,14,07,21,18.00
2023,05,14,07,22,18.00
2023,05,14,07,23,18.10
2023,05,14,07,24,18.10
2023,05,14,07,25,18.10
2023,05,14,07,26,18.10
2023,05,14,07,27,18.10
2023,05,14,07,28,18.10
2023,05,14,07,29,18.10
2023,05,14,07,30,18.10
2023,05,14,07,31,18.10
2023,05,14,07,32,18.10
2023,05,14,07,33,18.20
2023,05,14,07,34,18.20
2023,05,14,07,35,18.20
2023,05,14,07,36,18.20
2023,05,14,07,37,18.30
2023,05,14,07,38,18.30
2023,05,14,07,39,18.30
2023,05,14,07,40,18.40
2023,05,14,07,41,18.40
2023,05,14,07,42,18.50
2023,05,14,07,43,18.50
2023,05,14,07,44,18.60
2023,05,14,07,45,18.60
2023,05,14,07,46,18.70
2023,05,14,07,47,18.70
2023,05,14,07,48,18.80
2023,05,14,07,49,18.80
2023,05,14,07,50,18.80
2023,05,14,07,51,18.90
2023,05,14,07,52,18.90
2023,05,14,07,53,19.00
2023,05,14,07,54,19.00
2023,05,14,07,55,19.10
2023,05,14,07,56,19.10
2023,05,14,07,57,19.20
2023,05,14,07,58,19.20
2023,05,14,07,59,19.30
2023,05,14,08,00,19.30
2023,05,14,08,01,19.40
2023,05,14,08,02,19.40
2023,05,14,08,03,19.40
2023,05,14,08,04,19.50
2023,05,14,08,05,19.50
2023,05,14,08,06,19.60
2023,05,14,08,07,19.60
2023,05,14,08,08,19.70
2023,05,14,08,09,19.70
2023,05,14,08,10,19.70
2023,05,14,08,11,19.80
2023,05,14,08,12,19.80
2023,05,14,08,13,19.90
2023,05,14,08,14,19.90
2023,05,14,08,15,19.90
2023,05,14,08,16,20.00
2023,05,14,08,17,20.00
2023,05,14,08,18,20.10
2023,05,14,08,19,20.10
2023,05,14,08,20,20.10
2023,05,14,08,21,20.20
2023,05,14,08,22,20.20
2023,05,14,08,23,20.20
2023,05,14,08,24,20.30
2023,05,14,08,25,20.30
2023,05,14,08,26,20.30
2023,05,14,08,27,20.30
2023,05,14,08,28,20.40
2023,05,14,08,29,20.40
2023,05,14,08,30,20.40
2023,05,14,08,31,20.50
2023,05,14,08,32,20.50
2023,05,14,08,33,20.50
2023,05,14,08,34,20.50
2023,05,14,08,35,20.60
2023,05,14,08,36,20.60
2023,05,14,08,37,20.60
2023,05,14,08,38,20.70
2023,05,14,08,39,20.70
2023,05,14,08,40,20.70
2023,05,14,08,41,20.80
2023,05,14,08,42,20.80
2023,05,14,08,43,20.80
2023,05,14,08,44,20.80
2023,05,14,08,45,20.80
2023,05,14,08,46,20.80
2023,05,14,08,47,20.80
2023,05,14,08,48,20.80
2023,05,14,08,49,20.80
2023,05,14,08,50,20.80
2023,05,14,08,51,20.80
2023,05,14,08,52,20.80
2023,05,14,08,53,20.80
2023,05,14,08,54,20.80
2023,05,14,08,55,20.80
2023,05,14,08,56,20.80
2023,05,14,08,57,20.80
2023,05,14,08,58,20.80
2023,05,14,08,59,20.80
2023,05,14,09,00,20.80
2023,05,14,09,01,20.80
2023,05,14,09,02,20.80
2023,05,14,09,03,20.90
2023,05,14,09,04,20.90
2023,05,14,09,05,20.90
2023,05,14,09,06,20.90
2023,05,14,09,07,20.90
2023,05,14,09,08,20.90
2023,05,14,09,09,20.90
2023,05,14,09,10,20.90
2023,05,14,09,11,20.90
2023,05,14,09,12,20.90
2023,05,14,09,13,20.90
2023,05,14,09,14,20.90
2023,05,14,09,15,20.90
2023,05,14,09,16,20.90
2023,05,14,09,17,20.90
2023,05,14,09,18,20.90
2023,05,14,09,19,20.90
2023,05,14,09,20,21.00
2023,05,14,09,21,21.00
2023,05,14,09,22,21.00
2023,05,14,09,23,21.00
2023,05,14,09,24,21.00
2023,05,14,09,25,21.00
2023,05,14,09,26,21.00
2023,05,14,09,27,21.00
2023,05,14,09,28,21.10
2023,05,14,09,29,21.10
2023,05,14,09,30,21.20
2023,05,14,09,31,21.20
2023,05,14,09,32,21.20
2023,05,14,09,33,21.20
2023,05,14,09,34,21.20
2023,05,14,09,35,21.20
2023,05,14,09,36,21.20
2023,05,14,09,37,21.20
2023,05,14,09,38,21.20
2023,05,14,09,39,21.20
2023,05,14,09,40,21.30
2023,05,14,09,41,21.30
2023,05,14,09,42,21.30
2023,05,14,09,43,21.30
2023,05,14,09,44,21.30
2023,05,14,09,45,21.30
2023,05,14,09,46,21.30
2023,05,14,09,47,21.30
2023,05,14,09,48,21.30
2023,05,14,09,49,21.30
2023,05,14,09,50,21.30
2023,05,14,09,51,21.30
2023,05,14,09,52,21.30
2023,05,14,09,53,21.40
2023,05,14,09,54,21.40
2023,05,14,09,55,21.40
2023,05,14,09,56,21.50
2023,05,14,09,57,21.50
2023,05,14,09,58,21.60
2023,05,14,09,59,21.60
2023,05,14,10,00,21.70
2023,05,14,10,01,21.70
2023,05,14,10,02,21.70
2023,05,14,10,03,21.80
2023,05,14,10,04,21.80
2023,05,14,10,05,21.70
2023,05,14,10,06,21.70
2023,05,14,10,07,21.70
2023,05,14,10,08,21.70
2023,05,14,10,09,21.80
2023,05,14,10,10,21.80
2023,05,14,10,11,21.80
2023,05,14,10,12,21.90
2023,05,14,10,13,21.90
2023,05,14,10,14,21.90
2023,05,14,10,15,21.90
2023,05,14,10,16,22.00
2023,05,14,10,17,22.00
2023,05,14,10,18,22.00
2023,05,14,10,19,22.10
2023,05,14,10,20,22.10
2023,05,14,10,21,22.20
2023,05,14,10,22,22.20
2023,05,14,10,23,22.20
2023,05,14,10,24,22.20
2023,05,14,10,25,22.20
2023,05,14,10,26,22.30
2023,05,14,10,27,22.30
2023,05,14,10,28,22.30
2023,05,14,10,29,22.40
2023,05,14,10,30,22.40
2023,05,14,10,31,22.40
2023,05,14,10,32,22.40
2023,05,14,10,33,22.50
2023,05,14,10,34,22.50
2023,05,14,10,35,22.60
2023,05,14,10,36,22.60
2023,05,14,10,37,22.60
2023,05,14,10,38,22.60
2023,05,14,10,39,22.60
2023,05,14,10,40,22.60
2023,05,14,10,41,22.60
2023,05,14,10,42,22.60
2023,05,14,10,43,22.60
2023,05,14,10,44,22.60
2023,05,14,10,45,22.70
2023,05,14,10,46,22.70
2023,05,14,10,47,22.80
2023,05,14,10,48,22.80
2023,05,14,10,49,22.80
2023,05,14,10,50,22.90
2023,05,14,10,51,22.90
2023,05,14,10,52,22.90
2023,05,14,10,53,22.90
2023,05,14,10,54,23.00
2023,05,14,10,55,23.00
2023,05,14,10,56,23.10
2023,05,14,10,57,23.10
2023,05,14,10,58,23.10
2023,05,14,10,59,23.20
2023,05,14,11,00,23.10
2023,05,14,11,01,23.20
2023,05,14,11,02,23.20
2023,05,14,11,03,23.20
2023,05,14,11,04,23.20
2023,05,14,11,05,23.20
2023,05,14,11,06,23.20
2023,05,14,11,07,23.10
2023,05,14,11,08,23.10
2023,05,14,11,09,23.20
2023,05,14,11,10,23.20
2023,05,14,11,11,23.20
2023,05,14,11,12,23.30
2023,05,14,11,13,23.30
2023,05,14,11,14,23.30
2023,05,14,11,15,23.30
2023,05,14,11,16,23.40
2023,05,14,11,17,23.40
2023,05,14,11,18,23.50
2023,05,14,11,19,23.60
2023,05,14,11,20,23.60
2023,05,14,11,21,23.70
2023,05,14,11,22,23.70
2023,05,14,11,23,23.80
2023,05,14,11,24,23.80
2023,05,14,11,25,23.90
2023,05,14,11,26,23.90
2023,05,14,11,27,23.90
2023,05,14,11,28,23.90
2023,05,14,11,29,24.00
2023,05,14,11,30,24.00
2023,05,14,11,31,24.00
2023,05,14,11,32,24.10
2023,05,14,11,33,24.10
2023,05,14,11,34,24.10
2023,05,14,11,35,24.20
2023,05,14,11,36,24.20
2023,05,14,11,37,24.20
2023,05,14,11,38,24.10
2023,05,14,11,39,24.10
2023,05,14,11,40,24.10
2023,05,14,11,41,24.20
2023,05,14,11,42,24.30
2023,05,14,11,43,24.30
2023,05,14,11,44,24.40
2023,05,14,11,45,24.40
2023,05,14,11,46,24.40
2023,05,14,11,47,24.50
2023,05,14,11,48,24.50
2023,05,14,11,49,24.60
2023,05,14,11,50,24.60
2023,05,14,11,51,24.70
2023,05,14,11,52,24.70
2023,05,14,11,53,24.70
2023,05,14,11,54,24.70
2023,05,14,11,55,24.80
2023,05,14,11,56,24.80
2023,05,14,11,57,24.80
2023,05,14,11,58,24.90
2023,05,14,11,59,24.90
2023,05,14,12,00,24.90
2023,05,14,12,01,25.00
2023,05,14,12,02,25.10
2023,05,14,12,03,25.10
2023,05,14,12,04,25.20
2023,05,14,12,05,25.20
2023,05,14,12,06,25.30
2023,05,14,12,07,25.40
2023,05,14,12,08,25.40
2023,05,14,12,09,25.50
2023,05,14,12,10,25.50
2023,05,14,12,11,25.60
2023,05,14,12,12,25.60
2023,05,14,12,13,25.60
2023,05,14,12,14,25.70
2023,05,14,12,15,25.70
2023,05,14,12,16,25.70
2023,05,14,12,17,25.70
2023,05,14,12,18,25.80
2023,05,14,12,19,25.80
2023,05,14,12,20,25.80
2023,05,14,12,21,25.80
2023,05,14,12,22,25.80
2023,05,14,12,23,25.80
2023,05,14,12,24,25.80
2023,05,14,12,25,25.80
2023,05,14,12,26,25.90
2023,05,14,12,27,26.00
2023,05,14,12,28,26.00
2023,05,14,12,29,26.10
2023,05,14,12,30,26.10
2023,05,14,12,31,26.20
2023,05,14,12,32,26.20
2023,05,14,12,33,26.20
2023,05,14,12,34,26.20
2023,05,14,12,35,26.20
2023,05,14,12,36,26.10
2023,05,14,12,37,26.10
2023,05,14,12,38,26.10
2023,05,14,12,39,26.00
2023,05,14,12,40,26.10
2023,05,14,12,41,26.10
2023,05,14,12,42,26.10
2023,05,14,12,43,26.10
2023,05,14,12,44,26.10
2023,05,14,12,45,26.10
2023,05,14,12,46,26.10
2023,05,14,12,47,26.00
2023,05,14,12,48,25.90
2023,05,14,12,49,25.90
2023,05,14,12,50,25.90
2023,05,14,12,51,25.90
2023,05,14,12,52,25.90
2023,05,14,12,53,25.90
2023,05,14,12,54,25.90
2023,05,14,12,55,25.90
2023,05,14,12,56,25.90
2023,05,14,12,57,25.90
2023,05,14,12,58,25.90
2023,05,14,12,59,25.90
2023,05,14,13,00,25.90
2023,05,14,13,01,25.90
2023,05,14,13,02,25.90
2023,05,14,13,03,26.00
2023,05,14,13,04,26.10
2023,05,14,13,05,26.10
2023,05,14,13,06,26.20
2023,05,14,13,07,26.20
2023,05,14,13,08,26.20
2023,05,14,13,09,26.20
2023,05,14,13,10,26.20
2023,05,14,13,11,26.20
2023,05,14,13,12,26.30
2023,05,14,13,13,26.30
2023,05,14,13,14,26.30
2023,05,14,13,15,26.30
2023,05,14,13,16,26.30
2023,05,14,13,17,26.30
2023,05,14,13,18,26.30
2023,05,14,13,19,26.30
2023,05,14,13,20,26.30
2023,05,14,13,21,26.30
2023,05,14,13,22,26.40
2023,05,14,13,23,26.40
2023,05,14,13,24,26.40
2023,05,14,13,25,26.40
2023,05,14,13,26,26.40
2023,05,14,13,27,26.50
2023,05,14,13,28,26.50
2023,05,14,13,29,26.50
2023,05,14,13,30,26.50
2023,05,14,13,31,26.50
2023,05,14,13,32,26.50
2023,05,14,13,33,26.50
2023,05,14,13,34,26.50
2023,05,14,13,35,26.60
2023,05,14,13,36,26.60
2023,05,14,13,37,26.60
2023,05,14,13,38,26.70
2023,05,14,13,39,26.80
2023,05,14,13,40,26.80
2023,05,14,13,41,26.80
2023,05,14,13,42,26.70
2023,05,14,13,43,26.60
2023,05,14,13,44,26.60
2023,05,14,13,45,26.60
2023,05,14,13,46,26.60
2023,05,14,13,47,26.60
2023,05,14,13,48,26.70
2023,05,14,13,49,26.70
2023,05,14,13,50,26.80
2023,05,14,13,51,26.80
2023,05,14,13,52,26.90
2023,05,14,13,53,27.00
2023,05,14,13,54,27.10
2023,05,14,13,55,27.20
2023,05,14,13,56,27.20
2023,05,14,13,57,27.20
2023,05,14,13,58,27.20
2023,05,14,13,59,27.20
2023,05,14,14,00,27.20
2023,05,14,14,01,27.30
2023,05,14,14,02,27.30
2023,05,14,14,03,27.30
2023,05,14,14,04,27.30
2023,05,14,14,05,27.30
2023,05,14,14,06,27.40
2023,05,14,14,07,27.40
2023,05,14,14,08,27.40
2023,05,14,14,09,27.50
2023,05,14,14,10,27.50
2023,05,14,14,11,27.60
2023,05,14,14,12,27.60
2023,05,14,14,13,27.60
2023,05,14,14,14,27.60
2023,05,14,14,15,27.60
2023,05,14,14,16,27.60
2023,05,14,14,17,27.50
2023,05,14,14,18,27.50
2023,05,14,14,19,27.50
2023,05,14,14,20,27.50
2023,05,14,14,21,27.60
2023,05,14,14,22,27.50
2023,05,14,14,23,27.50
2023,05,14,14,24,27.40
2023,05,14,14,25,27.40
2023,05,14,14,26,27.30
2023,05,14,14,27,27.30
2023,05,14,14,28,27.30
2023,05,14,14,29,27.20
2023,05,14,14,30,27.20
2023,05,14,14,31,27.20
2023,05,14,14,32,27.20
2023,05,14,14,33,27.20
2023,05,14,14,34,27.20
2023,05,14,14,35,27.30
2023,05,14,14,36,27.30
2023,05,14,14,37,27.30
2023,05,14,14,38,27.30
2023,05,14,14,39,27.30
2023,05,14,14,40,27.30
2023,05,14,14,41,27.30
2023,05,14,14,42,27.30
2023,05,14,14,43,27.30
2023,05,14,14,44,27.30
2023,05,14,14,45,27.30
2023,05,14,14,46,27.40
2023,05,14,14,47,27.40
2023,05,14,14,48,27.40
2023,05,14,14,49,27.40
2023,05,14,14,50,27.50
2023,05,14,14,51,27.50
2023,05,14,14,52,27.60
2023,05,14,14,53,27.50
2023,05,14,14,54,27.50
2023,05,14,14,55,27.40
2023,05,14,14,56,27.40
2023,05,14,14,57,27.50
2023,05,14,14,58,27.50
2023,05,14,14,59,27.50
2023,05,14,15,00,27.50
2023,05,14,15,01,27.50
2023,05,14,15,02,27.50
2023,05,14,15,03,27.50
2023,05,14,15,04,27.50
2023,05,14,15,05,27.50
2023,05,14,15,06,27.50
2023,05,14,15,07,27.50
2023,05,14,15,08,27.40
2023,05,14,15,09,27.50
2023,05,14,15,10,27.50
2023,05,14,15,11,27.60
2023,05,14,15,12,27.60
2023,05,14,15,13,27.70
2023,05,14,15,14,27.80
2023,05,14,15,15,27.80
2023,05,14,15,16,27.90
2023,05,14,15,17,27.90
2023,05,14,15,18,28.00
2023,05,14,15,19,28.00
2023,05,14,15,20,28.10
2023,05,14,15,21,28.20
2023,05,14,15,22,28.20
2023,05,14,15,23,28.30
2023,05,14,15,24,28.30
2023,05,14,15,25,28.30
2023,05,14,15,26,28.30
2023,05,14,15,27,28.30
2023,05,14,15,28,28.30
2023,05,14,15,29,28.30
2023,05,14,15,30,28.30
2023,05,14,15,31,28.30
2023,05,14,15,32,28.30
2023,05,14,15,33,28.30
2023,05,14,15,34,28.30
2023,05,14,15,35,28.30
2023,05,14,15,36,28.30
2023,05,14,15,37,28.40
2023,05,14,15,38,28.40
2023,05,14,15,39,28.30
2023,05,14,15,40,28.30
2023,05,14,15,41,28.30
2023,05,14,15,42,28.30
2023,05,14,15,43,28.30
2023,05,14,15,44,28.40
2023,05,14,15,45,28.40
2023,05,14,15,46,28.50
2023,05,14,15,47,28.50
2023,05,14,15,48,28.60
2023,05,14,15,49,28.60
2023,05,14,15,50,28.60
2023,05,14,15,51,28.60
2023,05,14,15,52,28.70
2023,05,14,15,53,28.70
2023,05,14,15,54,28.80
2023,05,14,15,55,28.90
2023,05,14,15,56,28.90
2023,05,14,15,57,29.00
2023,05,14,15,58,29.00
2023,05,14,15,59,29.10
2023,05,14,16,00,29.10
2023,05,14,16,01,29.20
2023,05,14,16,02,29.20
2023,05,14,16,03,29.20
2023,05,14,16,04,29.30
2023,05,14,16,05,29.30
2023,05,14,16,06,29.30
2023,05,14,16,07,29.30
2023,05,14,16,08,29.30
2023,05,14,16,09,29.30
2023,05,14,16,10,29.30
2023,05,14,16,11,29.30
2023,05,14,16,12,29.40
2023,05,14,16,13,29.40
2023,05,14,16,14,29.50
2023,05,14,16,15,29.50
2023,05,14,16,16,29.60
2023,05,14,16,17,29.70
2023,05,14,16,18,29.70
2023,05,14,16,19,29.80
2023,05,14,16,20,29.80
2023,05,14,16,21,29.80
2023,05,14,16,22,29.80
2023,05,14,16,23,29.80
2023,05,14,16,24,29.90
2023,05,14,16,25,29.90
2023,05,14,16,26,30.00
2023,05,14,16,27,30.10
2023,05,14,16,28,30.10
2023,05,14,16,29,30.10
2023,05,14,16,30,30.20
2023,05,14,16,31,30.20
2023,05,14,16,32,30.20
2023,05,14,16,33,30.20
2023,05,14,16,34,30.20
2023,05,14,16,35,30.20
2023,05,14,16,36,30.20
2023,05,14,16,37,30.20
2023,05,14,16,38,30.20
2023,05,14,16,39,30.20
2023,05,14,16,40,30.30
2023,05,14,16,41,30.30
2023,05,14,16,42,30.30
2023,05,14,16,43,30.30
2023,05,14,16,44,30.40
2023,05,14,16,45,30.40
2023,05,14,16,46,30.50
2023,05,14,16,47,30.50
2023,05,14,16,48,30.60
2023,05,14,16,49,30.70
2023,05,14,16,50,30.80
2023,05,14,16,51,30.80
2023,05,14,16,52,30.90
2023,05,14,16,53,31.00
2023,05,14,16,54,31.10
2023,05,14,16,55,31.10
2023,05,14,16,56,31.20
2023,05,14,16,57,31.20
2023,05,14,16,58,31.20
2023,05,14,16,59,31.20
2023,05,14,17,00,31.20
2023,05,14,17,01,31.10
2023,05,14,17,02,31.10
2023,05,14,17,03,31.10
2023,05,14,17,04,31.10
2023,05,14,17,05,31.00
2023,05,14,17,06,31.00
2023,05,14,17,07,31.00
2023,05,14,17,08,30.90
2023,05,14,17,09,30.90
2023,05,14,17,10,30.90
2023,05,14,17,11,30.90
2023,05,14,17,12,30.80
2023,05,14,17,13,30.80
2023,05,14,17,14,30.80
2023,05,14,17,15,30.80
2023,05,14,17,16,30.80
2023,05,14,17,17,30.80
2023,05,14,17,18,30.80
2023,05,14,17,19,30.80